| time (UTC) | temp F | wind direction | speed knots | gust knots | rain 1hr in | rain 24hr in | rain mn in | humidity % | barometer mb |
| 20260506061521 | 60 | 232 | 2.6 | 6.1 | 0.00 | 0.32 | 0.00 | 57 | 1012.3 |
| 20260506044510 | 62 | 285 | 5.2 | 8.7 | 0.00 | 0.32 | 0.00 | 51 | 1011.7 |
| 20260506043005 | 63 | 270 | 4.3 | 9.6 | 0.00 | 0.32 | 0.00 | 50 | 1011.4 |
| 20260506041533 | 63 | 245 | 3.5 | 10.4 | 0.00 | 0.32 | 0.00 | 46 | 1011.1 |
| 20260506040029 | 64 | 249 | 3.5 | 10.4 | 0.00 | 0.32 | 0.00 | 41 | 1010.9 |
| 20260506034626 | 64 | 263 | 5.2 | 9.6 | 0.00 | 0.33 | 0.00 | 39 | 1010.8 |
| 20260506033054 | 64 | 263 | 3.5 | 7.0 | 0.00 | 0.33 | 0.00 | 39 | 1010.7 |
| 20260506031551 | 65 | 267 | 4.3 | 9.6 | 0.00 | 0.33 | 0.00 | 37 | 1010.4 |
| 20260506030047 | 65 | 264 | 7.8 | 10.4 | 0.00 | 0.33 | 0.00 | 37 | 1010.2 |
| 20260506024603 | 66 | 261 | 6.1 | 9.6 | 0.00 | 0.36 | 0.00 | 38 | 1010.0 |
| 20260506023042 | 66 | 272 | 9.6 | 16.5 | 0.00 | 0.36 | 0.00 | 37 | 1009.8 |
| 20260506021539 | 67 | 289 | 7.8 | 13.0 | 0.00 | 0.36 | 0.00 | 38 | 1009.5 |
| 20260506020034 | 67 | 274 | 8.7 | 16.5 | 0.00 | 0.36 | 0.00 | 37 | 1009.2 |
| 20260506014532 | 68 | 263 | 10.4 | 21.7 | 0.00 | 0.39 | 0.00 | 35 | 1009.2 |
| 20260506013038 | 69 | 263 | 10.4 | 22.6 | 0.00 | 0.39 | 0.00 | 31 | 1009.0 |
| 20260506011525 | 70 | 275 | 12.2 | 20.9 | 0.00 | 0.39 | 0.00 | 30 | 1008.9 |
| 20260506010024 | 70 | 265 | 12.2 | 23.5 | 0.00 | 0.39 | 0.00 | 31 | 1008.7 |
| 20260506004517 | 70 | 280 | 10.4 | 18.2 | 0.00 | 0.40 | 0.00 | 32 | 1008.6 |
| 20260506003017 | 70 | 210 | 12.2 | 18.2 | 0.00 | 0.40 | 0.00 | 32 | 1008.4 |
| 20260506001517 | 70 | 220 | 12.2 | 20.9 | 0.00 | 0.40 | 0.00 | 32 | 1008.5 |
| 20260506000009 | 71 | 236 | 10.4 | 19.1 | 0.00 | 0.40 | 0.00 | 31 | 1008.4 |
| 20260505234508 | 71 | 247 | 8.7 | 18.2 | 0.00 | 0.40 | 0.00 | 30 | 1008.2 |
| 20260505233006 | 72 | 255 | 9.6 | 20.0 | 0.00 | 0.40 | 0.00 | 29 | 1008.2 |
| 20260505231505 | 72 | 194 | 10.4 | 21.7 | 0.00 | 0.40 | 0.00 | 28 | 1008.3 |
| 20260505230049 | 71 | 230 | 12.2 | 19.1 | 0.00 | 0.40 | 0.00 | 28 | 1008.3 |
| 20260505224530 | 72 | 250 | 13.0 | 24.3 | 0.00 | 0.40 | 0.40 | 27 | 1008.1 |
| 20260505223029 | 72 | 250 | 10.4 | 21.7 | 0.00 | 0.40 | 0.40 | 31 | 1008.3 |
| 20260505221533 | 72 | 250 | 15.6 | 23.5 | 0.00 | 0.40 | 0.40 | 32 | 1008.3 |
| 20260505220026 | 71 | 295 | 15.6 | 24.3 | 0.00 | 0.40 | 0.40 | 34 | 1008.3 |
| 20260505214526 | 71 | 268 | 13.9 | 20.9 | 0.00 | 0.40 | 0.40 | 37 | 1008.4 |
| 20260505213026 | 70 | 250 | 8.7 | 23.5 | 0.00 | 0.40 | 0.40 | 40 | 1008.6 |
| 20260505211523 | 70 | 212 | 10.4 | 19.1 | 0.00 | 0.40 | 0.40 | 40 | 1008.6 |
| 20260505210022 | 72 | 236 | 12.2 | 20.0 | 0.00 | 0.40 | 0.40 | 37 | 1008.6 |
| 20260505204523 | 70 | 173 | 11.3 | 21.7 | 0.00 | 0.40 | 0.40 | 42 | 1008.9 |
| 20260505203057 | 70 | 191 | 9.6 | 18.2 | 0.00 | 0.40 | 0.40 | 44 | 1008.8 |
| 20260505201552 | 71 | 234 | 11.3 | 18.2 | 0.00 | 0.40 | 0.40 | 44 | 1009.0 |
| 20260505200048 | 69 | 246 | 8.7 | 16.5 | 0.00 | 0.40 | 0.40 | 51 | 1009.1 |
| 20260505194600 | 69 | 201 | 7.0 | 13.0 | 0.00 | 0.40 | 0.40 | 53 | 1009.2 |
| 20260505193046 | 67 | 277 | 4.3 | 9.6 | 0.00 | 0.40 | 0.40 | 58 | 1009.3 |
| 20260505191546 | 67 | 325 | 5.2 | 11.3 | 0.00 | 0.40 | 0.40 | 57 | 1009.4 |
| 20260505190044 | 67 | 267 | 1.7 | 12.2 | 0.00 | 0.40 | 0.40 | 58 | 1009.8 |
| 20260505184543 | 68 | 295 | 7.8 | 11.3 | 0.00 | 0.40 | 0.40 | 58 | 1010.0 |
| 20260505183053 | 66 | 300 | 0.9 | 9.6 | 0.00 | 0.40 | 0.40 | 61 | 1010.1 |
| 20260505181542 | 67 | 222 | 3.5 | 7.0 | 0.00 | 0.40 | 0.40 | 60 | 1010.3 |
| 20260505180039 | 66 | 212 | 2.6 | 11.3 | 0.00 | 0.40 | 0.40 | 62 | 1010.4 |
| 20260505174546 | 65 | 181 | 1.7 | 7.8 | 0.00 | 0.40 | 0.40 | 64 | 1010.5 |
| 20260505173046 | 63 | 285 | 2.6 | 9.6 | 0.00 | 0.40 | 0.40 | 67 | 1010.5 |
| 20260505171538 | 63 | 85 | 0.0 | 1.7 | 0.00 | 0.40 | 0.40 | 67 | 1010.5 |
| 20260505170038 | 63 | 42 | 1.7 | 4.3 | 0.00 | 0.40 | 0.40 | 69 | 1010.4 |
| 20260505164549 | 62 | 284 | 0.9 | 6.1 | 0.00 | 0.40 | 0.40 | 71 | 1010.5 |
| 20260505163036 | 61 | 257 | 1.7 | 6.1 | 0.00 | 0.40 | 0.40 | 71 | 1010.5 |
| 20260505161537 | 61 | 254 | 2.6 | 6.1 | 0.00 | 0.40 | 0.40 | 72 | 1010.5 |
| 20260505153047 | 60 | 93 | 0.0 | 0.0 | 0.00 | 0.40 | 0.40 | 78 | 1010.1 |
| 20260505151539 | 60 | 93 | 0.0 | 0.0 | 0.00 | 0.40 | 0.40 | 80 | 1010.1 |
| 20260505140108 | 57 | 92 | 0.9 | 3.5 | 0.00 | 0.40 | 0.40 | 86 | 1009.6 |
| 20260505124553 | 56 | 118 | 0.0 | 0.0 | 0.01 | 0.40 | 0.40 | 86 | 1008.9 |
| 20260505123103 | 56 | 113 | 1.7 | 6.1 | 0.02 | 0.40 | 0.40 | 86 | 1008.6 |
| 20260505121550 | 55 | 14 | 0.0 | 1.7 | 0.02 | 0.39 | 0.39 | 86 | 1008.7 |
| 20260505120050 | 56 | 13 | 0.9 | 4.3 | 0.03 | 0.39 | 0.39 | 86 | 1008.5 |
| 20260505114549 | 55 | 24 | 1.7 | 2.6 | 0.04 | 0.39 | 0.39 | 86 | 1008.2 |
| 20260505113050 | 56 | 63 | 0.9 | 3.5 | 0.03 | 0.38 | 0.38 | 87 | 1008.6 |
| 20260505111553 | 55 | 5 | 1.7 | 2.6 | 0.04 | 0.37 | 0.37 | 86 | 1008.7 |
| 20260505101540 | 56 | 82 | 1.7 | 5.2 | 0.03 | 0.33 | 0.33 | 86 | 1009.5 |
| 20260505100049 | 56 | 86 | 1.7 | 5.2 | 0.05 | 0.33 | 0.33 | 84 | 1009.3 |
| 20260505094538 | 57 | 128 | 7.8 | 13.0 | 0.06 | 0.33 | 0.33 | 83 | 1009.5 |
| 20260505093036 | 56 | 158 | 7.8 | 14.8 | 0.06 | 0.32 | 0.32 | 84 | 1009.9 |
| 20260505091541 | 56 | 151 | 6.1 | 12.2 | 0.05 | 0.30 | 0.30 | 84 | 1010.3 |
| 20260505090047 | 57 | 134 | 7.0 | 13.0 | 0.06 | 0.28 | 0.28 | 85 | 1010.7 |
| 20260505084535 | 56 | 142 | 4.3 | 7.8 | 0.08 | 0.27 | 0.27 | 85 | 1011.0 |
| 20260505083035 | 57 | 169 | 6.1 | 10.4 | 0.09 | 0.26 | 0.26 | 85 | 1011.7 |
| 20260505081601 | 57 | 149 | 2.6 | 7.0 | 0.09 | 0.25 | 0.25 | 85 | 1011.9 |
| 20260505080053 | 57 | 94 | 0.0 | 0.9 | 0.08 | 0.22 | 0.22 | 84 | 1012.2 |
| 20260505074522 | 57 | 94 | 0.0 | 0.0 | 0.07 | 0.19 | 0.19 | 83 | 1012.3 |
| 20260505073021 | 57 | 94 | 0.0 | 2.6 | 0.06 | 0.17 | 0.17 | 83 | 1012.4 |
| 20260505071550 | 57 | 94 | 0.9 | 3.5 | 0.06 | 0.16 | 0.16 | 83 | 1012.2 |